Total_Precipitation_Accumulation
0.05 0.04 0.05 0.06 0.08 0.10 0.13 0.15 0.28 0.39 0.52 0.62 0.69 0.80 0.87 0.89 0.86 0.85 0.84 0.70 0.55 0.56 0.61 0.56 0.64 0.59 0.54 0.58 0.49 0.48 0.42 0.31 0.19 0.27 0.26 0.10 0.03 0.01 0.01 0.00 0.00 0.00 0.00
0.04 0.04 0.05 0.07 0.08 0.09 0.11 0.15 0.26 0.43 0.59 0.74 0.88 0.93 1.06 1.07 1.01 1.04 0.97 0.96 0.83 0.76 0.71 0.67 0.76 0.73 0.80 0.94 0.82 0.74 0.66 0.48 0.29 0.41 0.52 0.29 0.13 0.04 0.01 0.01 0.00 0.00 0.00
0.04 0.03 0.03 0.04 0.05 0.06 0.09 0.14 0.23 0.41 0.64 0.86 0.98 0.98 0.99 1.06 1.04 0.96 0.93 0.95 1.01 1.03 0.95 0.90 0.90 0.84 0.84 1.03 1.09 1.00 0.90 0.76 0.53 0.44 0.48 0.44 0.36 0.17 0.04 0.01 0.01 0.01 0.00
0.02 0.02 0.02 0.02 0.04 0.06 0.08 0.12 0.25 0.38 0.55 0.73 0.88 0.92 0.95 1.08 1.10 0.99 0.87 0.83 0.90 1.01 1.03 1.00 1.00 0.91 0.81 0.91 1.06 1.09 1.07 1.07 0.87 0.66 0.49 0.39 0.36 0.28 0.14 0.04 0.01 0.01 0.01
0.03 0.03 0.04 0.05 0.07 0.08 0.10 0.17 0.29 0.41 0.56 0.71 0.85 0.94 0.93 0.94 0.94 0.83 0.73 0.71 0.79 0.82 0.81 0.87 0.96 0.91 0.82 0.86 1.04 1.14 1.21 1.11 1.01 0.85 0.76 0.69 0.57 0.36 0.26 0.20 0.07 0.02 0.01
0.05 0.08 0.12 0.12 0.12 0.14 0.16 0.24 0.37 0.55 0.68 0.71 0.74 0.74 0.76 0.79 0.73 0.70 0.69 0.75 0.79 0.75 0.68 0.72 0.79 0.86 0.82 0.81 0.87 1.01 1.09 1.14 1.16 1.03 0.85 0.80 0.74 0.64 0.51 0.35 0.22 0.12 0.03
0.14 0.20 0.24 0.26 0.25 0.27 0.32 0.40 0.46 0.53 0.56 0.53 0.52 0.53 0.57 0.60 0.53 0.51 0.60 0.65 0.74 0.72 0.70 0.67 0.72 0.79 0.80 0.86 0.95 0.94 0.93 1.03 1.08 1.07 0.99 0.92 0.78 0.62 0.63 0.52 0.35 0.25 0.12
0.26 0.36 0.44 0.47 0.44 0.42 0.42 0.38 0.36 0.35 0.34 0.33 0.34 0.34 0.35 0.39 0.36 0.30 0.38 0.49 0.51 0.50 0.50 0.55 0.64 0.74 0.79 0.84 0.90 0.92 0.93 0.94 0.95 1.00 1.01 1.02 0.97 0.76 0.64 0.62 0.58 0.47 0.32
0.40 0.52 0.61 0.65 0.62 0.51 0.40 0.35 0.29 0.28 0.26 0.24 0.24 0.24 0.23 0.23 0.22 0.19 0.17 0.21 0.29 0.29 0.28 0.35 0.46 0.57 0.66 0.73 0.77 0.81 0.87 0.88 0.85 0.88 0.90 0.87 0.90 0.85 0.71 0.62 0.60 0.62 0.52
0.54 0.64 0.69 0.67 0.63 0.63 0.53 0.39 0.27 0.26 0.28 0.35 0.32 0.24 0.19 0.16 0.15 0.15 0.17 0.15 0.19 0.24 0.27 0.30 0.35 0.41 0.51 0.62 0.66 0.71 0.76 0.72 0.68 0.69 0.71 0.75 0.82 0.88 0.84 0.79 0.71 0.66 0.62
0.65 0.67 0.72 0.68 0.54 0.47 0.45 0.40 0.30 0.28 0.30 0.40 0.41 0.28 0.18 0.15 0.18 0.17 0.15 0.19 0.26 0.30 0.26 0.27 0.36 0.35 0.38 0.46 0.55 0.68 0.78 0.73 0.68 0.61 0.60 0.69 0.76 0.92 0.98 0.93 0.82 0.75 0.68
0.54 0.57 0.64 0.59 0.44 0.37 0.30 0.30 0.30 0.29 0.30 0.34 0.33 0.24 0.17 0.16 0.19 0.21 0.13 0.12 0.16 0.17 0.17 0.21 0.27 0.30 0.35 0.41 0.51 0.61 0.68 0.70 0.62 0.56 0.52 0.56 0.63 0.78 0.91 1.01 0.91 0.83 0.75
0.46 0.43 0.44 0.47 0.42 0.37 0.28 0.31 0.36 0.37 0.38 0.35 0.31 0.24 0.18 0.19 0.19 0.17 0.13 0.09 0.09 0.11 0.15 0.19 0.24 0.27 0.30 0.38 0.43 0.47 0.49 0.44 0.42 0.42 0.41 0.46 0.51 0.58 0.71 0.83 0.91 0.86 0.77
0.36 0.34 0.29 0.32 0.34 0.32 0.29 0.32 0.42 0.52 0.53 0.53 0.46 0.37 0.28 0.25 0.22 0.18 0.13 0.10 0.08 0.08 0.10 0.14 0.16 0.20 0.24 0.28 0.31 0.33 0.38 0.34 0.27 0.24 0.24 0.29 0.32 0.38 0.49 0.61 0.72 0.82 0.83
0.27 0.25 0.23 0.25 0.26 0.26 0.30 0.33 0.45 0.59 0.67 0.69 0.63 0.52 0.47 0.37 0.28 0.23 0.17 0.14 0.11 0.11 0.11 0.17 0.22 0.25 0.26 0.29 0.31 0.27 0.32 0.32 0.28 0.23 0.21 0.18 0.19 0.24 0.32 0.43 0.60 0.71 0.79
0.23 0.20 0.21 0.20 0.22 0.27 0.32 0.31 0.43 0.56 0.65 0.68 0.68 0.65 0.57 0.44 0.37 0.29 0.21 0.17 0.15 0.15 0.16 0.19 0.24 0.31 0.29 0.37 0.38 0.33 0.32 0.31 0.25 0.21 0.23 0.25 0.23 0.17 0.15 0.18 0.30 0.43 0.58
0.23 0.20 0.20 0.20 0.23 0.30 0.31 0.31 0.40 0.51 0.55 0.59 0.61 0.61 0.55 0.40 0.34 0.26 0.21 0.19 0.18 0.19 0.21 0.23 0.27 0.35 0.44 0.43 0.34 0.37 0.35 0.31 0.25 0.19 0.19 0.23 0.24 0.29 0.25 0.20 0.18 0.19 0.29
0.16 0.20 0.18 0.17 0.19 0.24 0.29 0.37 0.40 0.40 0.41 0.45 0.48 0.46 0.45 0.39 0.31 0.23 0.23 0.22 0.21 0.23 0.24 0.25 0.27 0.31 0.41 0.39 0.34 0.45 0.43 0.40 0.36 0.28 0.23 0.23 0.22 0.24 0.34 0.39 0.32 0.27 0.29
0.07 0.09 0.09 0.09 0.10 0.10 0.11 0.14 0.17 0.19 0.23 0.30 0.36 0.39 0.39 0.35 0.30 0.24 0.30 0.35 0.32 0.28 0.27 0.25 0.26 0.30 0.34 0.37 0.31 0.35 0.41 0.45 0.41 0.33 0.28 0.27 0.27 0.35 0.39 0.39 0.37 0.35 0.35
0.02 0.03 0.03 0.03 0.02 0.02 0.02 0.03 0.05 0.09 0.13 0.19 0.24 0.27 0.30 0.33 0.37 0.45 0.51 0.51 0.46 0.38 0.33 0.30 0.27 0.30 0.30 0.39 0.25 0.28 0.34 0.42 0.47 0.41 0.33 0.41 0.39 0.39 0.32 0.25 0.30 0.33 0.37
0.00 0.00 0.01 0.00 0.00 0.00 0.00 0.00 0.01 0.02 0.02 0.04 0.09 0.18 0.28 0.34 0.44 0.55 0.57 0.55 0.48 0.39 0.34 0.32 0.30 0.30 0.37 0.50 0.39 0.36 0.38 0.38 0.43 0.45 0.44 0.42 0.48 0.36 0.27 0.24 0.27 0.36 0.43
0.00 0.00 0.00 0.00 0.00 0.00 0.00 0.00 0.00 0.00 0.01 0.03 0.07 0.12 0.20 0.29 0.42 0.51 0.49 0.48 0.45 0.42 0.38 0.38 0.35 0.37 0.46 0.52 0.49 0.45 0.45 0.40 0.41 0.43 0.38 0.35 0.37 0.28 0.23 0.20 0.25 0.28 0.31
0.00 0.00 0.00 0.00 0.00 0.00 0.00 0.00 0.00 0.00 0.00 0.01 0.02 0.06 0.11 0.22 0.36 0.39 0.38 0.42 0.44 0.42 0.40 0.39 0.37 0.35 0.40 0.48 0.54 0.44 0.35 0.28 0.32 0.34 0.30 0.26 0.23 0.20 0.16 0.17 0.19 0.19 0.23
0.00 0.00 0.00 0.00 0.00 0.00 0.00 0.00 0.00 0.00 0.00 0.00 0.00 0.01 0.02 0.05 0.10 0.15 0.19 0.26 0.31 0.32 0.31 0.33 0.37 0.40 0.40 0.38 0.39 0.37 0.31 0.25 0.23 0.19 0.13 0.12 0.14 0.15 0.16 0.18 0.16 0.18 0.31
0.00 0.00 0.00 0.00 0.00 0.00 0.00 0.00 0.00 0.00 0.00 0.00 0.00 0.01 0.02 0.02 0.03 0.05 0.09 0.12 0.15 0.19 0.24 0.29 0.33 0.34 0.37 0.35 0.34 0.34 0.34 0.37 0.38 0.33 0.21 0.15 0.14 0.13 0.15 0.18 0.22 0.31 0.39
0.00 0.00 0.00 0.00 0.00 0.00 0.00 0.00 0.00 0.00 0.00 0.00 0.00 0.00 0.00 0.01 0.01 0.02 0.02 0.04 0.06 0.09 0.11 0.15 0.17 0.18 0.24 0.30 0.30 0.32 0.33 0.33 0.33 0.34 0.34 0.33 0.32 0.30 0.27 0.25 0.24 0.26 0.32